Location: Gradaro
(45.0833°N, 10.8833°E)
Time: 14:58:53
(UTC+00:00)

Cosmos 1151 Rocket - Pass Details

Date: 29 November 2020
Orbit: 593 x 614 km, 82.5° (Epoch: 23 January)

Event Time Altitude Azimuth Distance (km) Brightness Sun altitude
Exits shadow 04:17:05 55° 197° (SSW) 724 3.2 -23.3°
Drops below altitude 10° 04:20:29 10° 179° (S) 1,933 5.7 -22.7°
Sets 04:22:42 0° 178° (S) 2,834 6.6 -22.3°
